CAPE
0 0 0 0 0 0 0 0 0 0 0 0 0 0 0 0 0 0 0 0 0 0 0 0 0 149 761 1063 940 403 76 77 63 51 260 350 245 114 39 302 402 105 72 59
0 0 0 0 0 0 0 0 0 0 0 0 0 0 0 0 0 0 0 0 0 0 0 0 21 175 1450 1397 950 497 319 228 301 381 279 49 74 28 929 839 789 402 54 76
0 0 0 0 0 0 0 0 0 0 0 0 0 0 0 0 0 0 0 0 0 0 0 0 176 621 1133 1599 1837 1604 1411 864 902 898 1115 1150 889 1326 1353 868 1017 1183 576 487
0 0 0 0 0 0 0 0 0 0 0 0 2 0 0 0 0 0 0 0 0 0 0 0 289 692 1621 1550 2457 2673 2409 1759 1767 2092 1582 1536 1393 1320 1269 1332 1510 1377 1257 1111
0 0 0 0 0 0 0 0 0 0 0 0 0 0 0 0 0 0 0 0 0 0 0 0 41 650 1526 1662 2225 2532 2562 2543 2206 2083 1952 1790 1357 1103 1274 1079 776 599 249 119
0 0 0 0 0 0 0 0 0 1 0 0 0 0 0 0 0 0 0 0 0 0 0 0 47 648 1132 711 1313 2123 1900 1981 2159 1949 1834 1454 683 418 386 287 268 318 360 174
8 0 0 0 0 0 0 0 0 0 0 0 0 0 0 0 8 0 0 0 0 0 0 1 66 255 1278 1180 1339 1213 765 775 943 1112 1004 699 509 368 335 242 212 218 202 139
0 1 0 0 0 0 0 0 0 0 0 0 0 0 0 0 0 9 0 0 32 122 193 198 304 1277 1499 1383 1199 833 643 452 405 469 501 413 396 379 296 197 178 100 104 68
0 0 0 0 0 0 0 0 0 0 16 0 0 0 53 35 63 44 5 46 138 158 242 536 944 1071 1125 1142 985 729 456 424 338 282 303 333 246 196 181 161 148 102 67 21
14 18 1 0 0 0 0 0 0 0 0 0 6 30 84 65 16 16 76 122 386 308 552 1021 973 902 839 742 481 294 138 58 48 69 134 178 242 216 193 126 77 29 0 0
24 75 3 0 5 0 0 0 0 0 0 0 0 66 49 32 7 19 78 228 447 397 459 646 612 507 530 303 145 57 9 14 40 63 104 113 108 47 11 0 0 0 0 0
22 22 1 0 0 0 2 0 0 23 29 29 12 113 8 44 0 0 12 310 236 139 242 420 397 289 177 77 32 0 0 0 0 13 2 0 0 0 0 0 0 0 0 0
47 1 0 0 0 0 0 1 0 0 28 44 63 17 11 23 1 24 1 81 98 0 104 147 134 25 0 0 0 0 0 0 0 0 0 0 0 0 0 0 0 0 0 0
9 18 0 0 0 0 0 0 0 0 1 0 46 28 25 16 5 2 0 11 48 0 5 16 0 0 0 0 0 0 0 0 0 0 0 0 0 0 0 0 0 0 0 0
22 26 15 13 33 16 22 18 0 1 90 0 56 62 50 41 77 27 8 11 20 6 1 0 0 0 0 0 0 0 0 0 0 0 0 0 0 0 0 0 0 0 0 0
5 31 1 0 1 45 33 32 48 149 76 47 31 15 7 1 10 22 8 34 35 3 0 0 0 0 0 0 0 0 0 0 0 0 0 0 0 0 0 0 0 0 0 0
9 37 13 22 0 4 10 24 103 116 22 35 18 7 34 8 14 43 8 0 3 2 2 3 0 0 0 0 0 0 0 0 0 0 0 0 0 0 0 0 0 0 0 0
24 70 49 0 2 0 7 2 55 116 146 22 3 0 3 1 0 8 16 1 0 0 0 0 0 2 0 0 0 0 0 0 0 0 0 0 0 0 0 0 0 0 0 0
25 49 16 0 0 0 0 0 12 46 9 18 3 2 16 0 1 3 1 0 6 1 1 5 7 1 0 0 0 0 0 0 0 0 0 0 0 0 0 0 0 0 0 0
37 64 8 0 0 0 0 2 0 0 0 8 19 14 8 8 1 0 62 23 32 20 18 23 2 0 0 0 0 0 0 0 0 0 0 0 0 0 0 0 0 0 0 0
4 1 0 0 0 17 4 0 0 2 11 13 0 0 0 0 0 0 0 18 22 12 0 0 0 0 0 0 0 0 0 0 0 0 0 0 0 0 0 0 0 0 0 0
0 0 0 2 0 0 15 29 3 1 0 14 4 0 0 0 0 0 0 0 0 0 0 0 0 0 0 0 0 0 0 0 0 0 0 0 0 0 0 0 0 0 0 6
0 0 0 0 29 21 7 0 0 0 0 0 0 0 0 0 0 0 0 0 0 0 0 0 0 0 0 0 0 0 0 0 0 0 0 0 0 0 0 0 0 1 5 0
29 19 1 0 31 5 4 2 0 0 0 0 0 0 0 0 0 0 0 0 0 0 0 0 0 0 0 0 0 0 0 0 0 0 0 0 0 0 0 0 0 0 0 0
7 32 13 1 19 13 17 12 1 0 0 0 0 0 0 0 0 0 0 0 0 0 0 0 0 0 0 0 0 0 0 0 0 0 0 0 0 0 0 3 0 0 0 0
21 22 1 1 2 0 6 10 18 0 0 0 0 0 0 0 0 0 0 0 0 0 0 0 0 0 0 0 0 0 0 0 0 0 0 0 0 0 0 0 0 0 0 0
CIN
0 0 0 0 0 0 0 0 0 0 0 0 0 0 0 0 0 0 0 0 0 0 0 0 0 -170 -129 -53 -53 -137 -24 -247 -262 -197 -94 -66 -83 -32 -295 -48 -46 -67 -189 -279
0 0 0 0 0 0 0 0 0 0 0 0 0 0 0 0 0 0 0 0 0 0 0 0 -192 -231 -69 -62 -43 -60 -48 -274 -191 -110 -42 -126 -126 -69 -77 -16 -28 -39 -28 -59
0 0 0 0 0 0 0 0 0 0 0 0 0 0 0 0 0 0 0 0 0 0 0 0 -137 -133 -82 -51 -87 -91 -58 -157 -38 -26 -32 -51 -60 -47 -30 -68 -61 -70 -63 -172
0 0 0 0 0 0 0 0 0 0 0 0 -6 0 0 0 0 0 0 0 0 0 0 0 -120 -92 -86 -98 -57 -39 -39 -57 -58 -41 -30 -67 -82 -26 -84 -64 -39 -10 -18 -23
0 0 0 0 0 0 0 0 0 0 0 0 0 0 0 0 0 0 0 0 0 0 0 0 -88 -71 -92 -94 -57 -55 -34 -25 -33 -21 -28 -39 -69 -39 -28 -43 -31 -25 -49 -45
0 0 0 0 0 0 0 0 0 -8 0 0 0 0 0 0 0 0 0 0 0 0 0 0 -82 -101 -120 -122 -101 -55 -41 -39 -43 -29 -43 -55 -68 -127 -141 -60 -124 -150 -159 -206
-1 0 0 0 -1 0 0 0 0 0 0 0 0 0 0 0 -2 0 0 0 0 -6 0 -42 -151 -120 -118 -105 -114 -78 -115 -88 -95 -54 -53 -58 -78 -84 -53 -108 -54 -138 -124 -138
0 0 0 0 0 0 0 0 0 0 0 0 0 0 0 0 -2 -6 0 0 -120 -70 -67 -130 -154 -165 -102 -105 -127 -136 -131 -127 -157 -126 -83 -67 -46 -48 -53 -97 -96 -64 -138 -131
0 0 0 0 0 0 -6 0 0 0 -30 0 -4 0 -17 -52 -7 -10 -41 -38 -84 -68 -90 -120 -143 -137 -138 -125 -109 -89 -125 -131 -140 -155 -139 -98 -76 -70 -56 -50 -49 -43 -30 -29
-14 -10 -10 0 0 0 0 0 0 0 0 0 -8 -12 -39 -56 -5 -89 -30 -24 -110 -148 -116 -116 -95 -94 -98 -102 -95 -102 -125 -208 -192 -168 -146 -114 -94 -72 -49 -37 -42 -59 0 0
-45 -12 -2 -2 -26 0 0 0 0 0 0 0 0 -94 -186 -127 -77 -2 -155 -71 -91 -101 -108 -104 -81 -82 -89 -143 -197 -249 -238 -218 -173 -138 -117 -97 -75 -72 -17 -7 0 0 0 0
-16 -17 -1 0 0 0 -55 0 0 -8 -20 -9 -21 -74 -32 -39 -3 -11 -33 -77 -64 -6 -78 -103 -91 -99 -103 -110 -180 0 0 0 -9 -138 -97 0 0 0 0 0 0 0 0 0
-50 -1 0 -6 0 0 0 -28 0 0 -47 -54 -29 -60 -141 -75 -130 -190 -49 -78 -31 0 -69 -99 -84 -74 0 0 0 0 0 0 0 0 0 0 0 0 0 0 0 0 0 0
-8 -2 0 0 0 0 0 0 -3 0 -3 0 -75 -11 -64 -114 -49 -192 0 -72 -23 -6 -1 -18 -11 0 0 0 0 0 0 0 0 0 0 0 0 0 0 0 0 0 0 0
-2 -21 -32 -65 -66 -67 -29 -5 -1 -2 -36 0 -47 -20 -46 -78 -75 -98 -41 -29 -107 -38 -1 0 0 0 0 0 0 0 0 0 0 0 0 0 0 0 0 0 0 0 0 0
-1 -13 -3 -2 -5 -85 -96 -28 -12 -50 -10 -31 -7 -44 -10 -3 -43 -57 -77 -145 -86 -75 0 0 0 0 0 0 0 0 0 0 0 0 0 0 0 0 0 0 0 0 0 0
-2 -21 -16 -37 0 -7 -25 -43 -39 -107 -49 -84 -37 -40 -63 -63 -70 -31 -77 -1 0 0 -152 -86 0 0 0 0 0 0 0 0 0 0 0 0 0 0 0 0 0 0 0 0
-13 -19 -12 0 -11 0 -13 -20 -61 -56 -101 -193 -52 0 -34 -18 0 -34 -19 -1 0 0 0 0 0 -18 0 0 0 0 0 0 0 0 0 0 0 0 0 0 0 0 0 0
-1 -9 -4 0 0 0 0 0 -20 -46 -25 -38 -22 -7 -11 0 -53 -69 -2 0 -75 -32 -34 -15 -12 -3 0 0 0 0 0 0 0 0 0 0 0 0 0 0 0 0 0 0
-1 -40 -6 0 0 0 -1 -7 0 0 -6 -25 -11 -15 -27 -23 -16 -3 -23 -22 -16 -16 -6 -8 -1 0 0 0 0 0 0 0 0 0 0 0 0 0 0 0 0 0 0 0
-1 -14 0 -3 0 -1 -50 0 0 -19 0 -13 -4 -7 0 0 0 0 -10 -12 -9 -8 0 0 0 0 0 0 0 0 0 0 0 0 0 0 0 -1 0 0 0 0 0 0
0 0 0 -7 0 0 -22 -69 -61 -1 0 -42 -15 -3 0 0 0 0 0 0 0 0 0 0 0 0 0 0 0 0 0 0 0 0 0 0 0 0 0 0 0 0 0 0
0 0 0 0 -6 -29 -61 0 0 0 0 0 0 0 0 0 0 0 0 0 0 0 0 0 0 0 0 0 0 0 0 0 0 0 0 0 0 0 0 0 0 0 0 0
-12 -47 -12 0 -1 -24 -38 -45 0 0 0 0 0 0 0 0 0 0 0 0 0 0 0 0 0 0 0 0 0 0 0 0 0 0 0 0 0 0 0 0 0 0 0 0
-4 -41 -44 -2 0 0 0 -6 -2 0 0 0 0 0 0 0 0 0 0 0 0 0 0 0 0 0 0 0 0 0 0 0 0 0 0 0 0 0 0 0 0 0 0 0
-22 -40 -52 -54 0 0 0 -1 -1 0 0 0 0 0 0 0 0 0 0 0 0 0 0 0 0 0 0 0 0 0 0 0 0 0 0 0 0 0 0 0 0 0 0 0
Wind_Speed
nan nan nan nan nan nan nan nan nan nan nan nan nan nan nan nan nan nan nan nan nan nan nan nan nan 52 58 61 61 62 nan nan nan nan 53 49 45 45 nan 38 52 55 nan nan
nan nan nan nan nan nan nan nan nan nan nan nan nan nan nan nan nan nan nan nan nan nan nan nan nan 51 54 61 63 65 62 59 56 53 49 nan nan nan 43 50 51 52 nan nan
nan nan nan nan nan nan nan nan nan nan nan nan nan nan nan nan nan nan nan nan nan nan nan nan 50 47 53 60 62 62 60 62 61 55 50 50 44 37 45 46 49 49 50 59
nan nan nan nan nan nan nan nan nan nan nan nan nan nan nan nan nan nan nan nan nan nan nan nan 43 42 42 43 52 56 59 60 57 48 60 57 47 44 33 48 56 53 58 63
nan nan nan nan nan nan nan nan nan nan nan nan nan nan nan nan nan nan nan nan nan nan nan nan nan 39 38 39 45 49 49 44 40 40 43 47 48 52 49 52 54 59 60 61
nan nan nan nan nan nan nan nan nan nan nan nan nan nan nan nan nan nan nan nan nan nan nan nan nan 35 35 35 36 32 32 31 30 28 31 36 40 44 46 46 52 45 47 53
nan nan nan nan nan nan nan nan nan nan nan nan nan nan nan nan nan nan nan nan nan nan nan nan nan 33 26 26 29 25 31 28 26 27 29 32 39 40 43 43 26 26 33 36
nan nan nan nan nan nan nan nan nan nan nan nan nan nan nan nan nan nan nan nan nan 30 32 33 33 32 34 29 33 32 30 25 27 29 28 30 33 33 32 33 30 28 30 nan
nan nan nan nan nan nan nan nan nan nan nan nan nan nan nan nan nan nan nan nan 27 34 34 37 38 36 32 33 32 29 25 25 27 31 32 33 34 35 34 36 35 33 nan nan
nan nan nan nan nan nan nan nan nan nan nan nan nan nan nan nan nan nan nan 28 34 38 45 45 40 38 35 32 32 29 29 nan nan nan 33 35 38 39 39 39 nan nan nan nan
nan nan nan nan nan nan nan nan nan nan nan nan nan nan nan nan nan nan nan 51 36 44 56 45 44 40 35 32 34 nan nan nan nan nan 36 39 41 nan nan nan nan nan nan nan
nan nan nan nan nan nan nan nan nan nan nan nan nan 27 nan nan nan nan nan 40 53 57 51 48 47 39 37 nan nan nan nan nan nan nan nan nan nan nan nan nan nan nan nan nan
nan nan nan nan nan nan nan nan nan nan nan nan nan nan nan nan nan nan nan nan nan nan 40 28 34 nan nan nan nan nan nan nan nan nan nan nan nan nan nan nan nan nan nan nan
nan nan nan nan nan nan nan nan nan nan nan nan nan nan nan nan nan nan nan nan nan nan nan nan nan nan nan nan nan nan nan nan nan nan nan nan nan nan nan nan nan nan nan nan
nan nan nan nan nan nan nan nan nan nan nan nan nan nan nan nan nan nan nan nan nan nan nan nan nan nan nan nan nan nan nan nan nan nan nan nan nan nan nan nan nan nan nan nan
nan nan nan nan nan nan nan nan nan 35 nan nan nan nan nan nan nan nan nan nan nan nan nan nan nan nan nan nan nan nan nan nan nan nan nan nan nan nan nan nan nan nan nan nan
nan nan nan nan nan nan nan nan 42 36 nan nan nan nan nan nan nan nan nan nan nan nan nan nan nan nan nan nan nan nan nan nan nan nan nan nan nan nan nan nan nan nan nan nan
nan nan nan nan nan nan nan nan nan 37 41 nan nan nan nan nan nan nan nan nan nan nan nan nan nan nan nan nan nan nan nan nan nan nan nan nan nan nan nan nan nan nan nan nan
nan nan nan nan nan nan nan nan nan nan nan nan nan nan nan nan nan nan nan nan nan nan nan nan nan nan nan nan nan nan nan nan nan nan nan nan nan nan nan nan nan nan nan nan
nan nan nan nan nan nan nan nan nan nan nan nan nan nan nan nan nan nan nan nan nan nan nan nan nan nan nan nan nan nan nan nan nan nan nan nan nan nan nan nan nan nan nan nan
nan nan nan nan nan nan nan nan nan nan nan nan nan nan nan nan nan nan nan nan nan nan nan nan nan nan nan nan nan nan nan nan nan nan nan nan nan nan nan nan nan nan nan nan
nan nan nan nan nan nan nan nan nan nan nan nan nan nan nan nan nan nan nan nan nan nan nan nan nan nan nan nan nan nan nan nan nan nan nan nan nan nan nan nan nan nan nan nan
nan nan nan nan nan nan nan nan nan nan nan nan nan nan nan nan nan nan nan nan nan nan nan nan nan nan nan nan nan nan nan nan nan nan nan nan nan nan nan nan nan nan nan nan
nan nan nan nan nan nan nan nan nan nan nan nan nan nan nan nan nan nan nan nan nan nan nan nan nan nan nan nan nan nan nan nan nan nan nan nan nan nan nan nan nan nan nan nan
nan nan nan nan nan nan nan nan nan nan nan nan nan nan nan nan nan nan nan nan nan nan nan nan nan nan nan nan nan nan nan nan nan nan nan nan nan nan nan nan nan nan nan nan
nan nan nan nan nan nan nan nan nan nan nan nan nan nan nan nan nan nan nan nan nan nan nan nan nan nan nan nan nan nan nan nan nan nan nan nan nan nan nan nan nan nan nan nan
Wind_Direction
nan nan nan nan nan nan nan nan nan nan nan nan nan nan nan nan nan nan nan nan nan nan nan nan nan 261 266 266 267 270 nan nan nan nan 269 263 269 260 nan 267 285 286 nan nan
nan nan nan nan nan nan nan nan nan nan nan nan nan nan nan nan nan nan nan nan nan nan nan nan nan 257 261 271 272 274 275 280 276 272 272 nan nan nan 267 275 272 290 nan nan
nan nan nan nan nan nan nan nan nan nan nan nan nan nan nan nan nan nan nan nan nan nan nan nan 267 266 263 268 275 280 285 284 282 284 275 270 267 262 267 262 267 275 278 282
nan nan nan nan nan nan nan nan nan nan nan nan nan nan nan nan nan nan nan nan nan nan nan nan 277 271 268 271 272 278 286 287 288 295 283 297 290 286 268 255 262 269 275 277
nan nan nan nan nan nan nan nan nan nan nan nan nan nan nan nan nan nan nan nan nan nan nan nan nan 288 289 271 268 269 273 281 289 280 285 284 280 279 275 272 270 267 274 277
nan nan nan nan nan nan nan nan nan nan nan nan nan nan nan nan nan nan nan nan nan nan nan nan nan 285 276 260 253 252 261 264 264 273 284 285 289 293 290 286 272 270 268 271
nan nan nan nan nan nan nan nan nan nan nan nan nan nan nan nan nan nan nan nan nan nan nan nan nan 264 254 256 261 269 265 262 269 278 275 281 280 274 281 292 282 262 257 261
nan nan nan nan nan nan nan nan nan nan nan nan nan nan nan nan nan nan nan nan nan 267 276 273 270 268 258 263 268 263 264 268 271 271 272 268 266 276 281 278 280 281 282 nan
nan nan nan nan nan nan nan nan nan nan nan nan nan nan nan nan nan nan nan nan 251 274 273 277 278 275 257 257 254 254 258 261 264 268 265 264 268 273 279 279 279 278 nan nan
nan nan nan nan nan nan nan nan nan nan nan nan nan nan nan nan nan nan nan 234 254 274 269 269 267 263 259 253 252 257 255 nan nan nan 268 270 274 274 272 271 nan nan nan nan
nan nan nan nan nan nan nan nan nan nan nan nan nan nan nan nan nan nan nan 220 229 267 265 257 259 263 257 250 248 nan nan nan nan nan 272 272 272 nan nan nan nan nan nan nan
nan nan nan nan nan nan nan nan nan nan nan nan nan 217 nan nan nan nan nan 224 234 217 250 255 262 261 254 nan nan nan nan nan nan nan nan nan nan nan nan nan nan nan nan nan
nan nan nan nan nan nan nan nan nan nan nan nan nan nan nan nan nan nan nan nan nan nan 222 232 241 nan nan nan nan nan nan nan nan nan nan nan nan nan nan nan nan nan nan nan
nan nan nan nan nan nan nan nan nan nan nan nan nan nan nan nan nan nan nan nan nan nan nan nan nan nan nan nan nan nan nan nan nan nan nan nan nan nan nan nan nan nan nan nan
nan nan nan nan nan nan nan nan nan nan nan nan nan nan nan nan nan nan nan nan nan nan nan nan nan nan nan nan nan nan nan nan nan nan nan nan nan nan nan nan nan nan nan nan
nan nan nan nan nan nan nan nan nan 238 nan nan nan nan nan nan nan nan nan nan nan nan nan nan nan nan nan nan nan nan nan nan nan nan nan nan nan nan nan nan nan nan nan nan
nan nan nan nan nan nan nan nan 189 215 nan nan nan nan nan nan nan nan nan nan nan nan nan nan nan nan nan nan nan nan nan nan nan nan nan nan nan nan nan nan nan nan nan nan
nan nan nan nan nan nan nan nan nan 215 222 nan nan nan nan nan nan nan nan nan nan nan nan nan nan nan nan nan nan nan nan nan nan nan nan nan nan nan nan nan nan nan nan nan
nan nan nan nan nan nan nan nan nan nan nan nan nan nan nan nan nan nan nan nan nan nan nan nan nan nan nan nan nan nan nan nan nan nan nan nan nan nan nan nan nan nan nan nan
nan nan nan nan nan nan nan nan nan nan nan nan nan nan nan nan nan nan nan nan nan nan nan nan nan nan nan nan nan nan nan nan nan nan nan nan nan nan nan nan nan nan nan nan
nan nan nan nan nan nan nan nan nan nan nan nan nan nan nan nan nan nan nan nan nan nan nan nan nan nan nan nan nan nan nan nan nan nan nan nan nan nan nan nan nan nan nan nan
nan nan nan nan nan nan nan nan nan nan nan nan nan nan nan nan nan nan nan nan nan nan nan nan nan nan nan nan nan nan nan nan nan nan nan nan nan nan nan nan nan nan nan nan
nan nan nan nan nan nan nan nan nan nan nan nan nan nan nan nan nan nan nan nan nan nan nan nan nan nan nan nan nan nan nan nan nan nan nan nan nan nan nan nan nan nan nan nan
nan nan nan nan nan nan nan nan nan nan nan nan nan nan nan nan nan nan nan nan nan nan nan nan nan nan nan nan nan nan nan nan nan nan nan nan nan nan nan nan nan nan nan nan
nan nan nan nan nan nan nan nan nan nan nan nan nan nan nan nan nan nan nan nan nan nan nan nan nan nan nan nan nan nan nan nan nan nan nan nan nan nan nan nan nan nan nan nan
nan nan nan nan nan nan nan nan nan nan nan nan nan nan nan nan nan nan nan nan nan nan nan nan nan nan nan nan nan nan nan nan nan nan nan nan nan nan nan nan nan nan nan nan